Flag for Germany Weather past 2 weeks in Erlangen, Bavaria, Germany

Now
50 °F

Light rain. Passing clouds.


Feels Like: 47 °F
Forecast: 43 / 51 °F
Wind: 8 mph from Southwest

Location: Nuernberg

Current Time: Dec 18, 2014 at 6:54:02 PM

Latest Report: Dec 18, 2014 at 6:20 PM


Visibility: N/A

Pressure: 29.98 "Hg

Humidity: 100%

Dew point: 50 °F

Location of ErlangenLocation

Historic Weather in Erlangen — Graph

°F

Erlangen temperature yesterday

Maximum temperature yesterday: 43 °F (at 11:20 PM)
Minimum temperature yesterday: 30 °F (at 6:20 AM)
Average temperature yesterday: 37 °F

Past Weeks' High & Low Weather Summary

 TemperatureHumidityPressure
High52 °F (Dec 13, 12:20 PM)100% (Dec 3, 6:50 PM)30.45 "Hg (Dec 3, 6:50 PM)
Low23 °F (Dec 9, 3:50 AM)58% (Dec 13, 12:20 PM)29.71 "Hg (Dec 12, 3:50 PM)
Average39 °F93%30.02 "Hg
* Reported Dec 3 5:20 PM — Dec 18 5:50 PM, Erlangen, Weather by CustomWeather, © 2014

Note: Actual official high and low records may vary slightly from our data, if they occured in-between our weather recording intervals... More about our weather records

Advertising

Erlangen weather history for previous 24 hours

 ConditionsComfort  
Time TempWeatherWind HumidityBarometerVisibility
5:50 PM
Dec 18
50 °FPassing clouds.8 mph100%29.98 "Hg4 mi
5:20 PM50 °FPassing clouds.6 mph100%29.98 "Hg3 mi
4:20 PM50 °FPassing clouds.6 mph100%29.95 "Hg2 mi
3:50 PM50 °FDrizzle. Partly sunny.8 mph94%29.95 "Hg2 mi
3:20 PM50 °FDrizzle. Partly sunny.7 mph94%29.95 "HgN/A
2:50 PM50 °FDrizzle. Partly sunny.6 mph94%29.95 "HgN/A
2:20 PM50 °FPartly sunny.6 mph94%29.95 "HgN/A
1:50 PM48 °FPartly sunny.8 mph100%29.95 "HgN/A
1:20 PM48 °FBroken clouds.8 mph100%29.95 "Hg5 mi
12:50 PM48 °FPartly sunny.9 mph94%29.95 "HgN/A
12:20 PM48 °FPartly sunny.7 mph94%29.95 "HgN/A
11:50 AM48 °FPartly sunny.6 mph94%29.95 "HgN/A
11:20 AM46 °FPartly sunny.5 mph93%29.98 "HgN/A
10:50 AM46 °FDrizzle. Partly sunny.6 mph93%29.98 "HgN/A
10:20 AM46 °FDrizzle. Partly sunny.6 mph93%29.98 "Hg5 mi
9:50 AM46 °FPartly sunny.5 mph93%29.98 "HgN/A
9:20 AM46 °FBroken clouds.6 mph93%29.98 "HgN/A
8:50 AM46 °FPartly sunny.6 mph93%29.98 "HgN/A
8:20 AM46 °FPartly sunny.6 mph93%29.98 "HgN/A
7:50 AM45 °FPassing clouds.7 mph100%29.98 "HgN/A
7:20 AM45 °FLow clouds.6 mph100%29.98 "HgN/A
6:50 AM45 °FPassing clouds.7 mph100%29.98 "HgN/A
6:20 AM45 °FPassing clouds.6 mph93%29.95 "HgN/A
5:50 AM45 °FPartly cloudy.5 mph93%29.95 "HgN/A
5:20 AM45 °FPassing clouds.7 mph93%29.95 "HgN/A
4:20 AM45 °FPassing clouds.7 mph93%29.95 "HgN/A
3:50 AM45 °FPassing clouds.9 mph93%29.95 "HgN/A
3:20 AM45 °FPassing clouds.9 mph93%29.95 "HgN/A
2:50 AM45 °FPassing clouds.8 mph93%29.95 "HgN/A
2:20 AM43 °FPassing clouds.7 mph100%29.92 "Hg4 mi
1:50 AM43 °FPassing clouds.7 mph100%29.92 "HgN/A
1:20 AM43 °FPassing clouds.6 mph100%29.92 "HgN/A
12:50 AM43 °FPassing clouds.7 mph100%29.92 "Hg4 mi
12:20 AM43 °FPassing clouds.8 mph93%29.89 "Hg4 mi
11:20 PM
Dec 17
43 °FPassing clouds.6 mph93%29.89 "HgN/A
10:50 PM41 °FPassing clouds.7 mph100%29.86 "HgN/A
10:20 PM41 °FPassing clouds.8 mph100%29.86 "Hg5 mi
9:50 PM41 °FPassing clouds.8 mph93%29.86 "HgN/A
9:20 PM41 °FPassing clouds.7 mph93%29.83 "HgN/A
8:50 PM41 °FPassing clouds.6 mph93%29.83 "HgN/A
8:20 PM39 °FPassing clouds.6 mph100%29.80 "HgN/A
7:50 PM39 °FPassing clouds.6 mph93%29.80 "HgN/A
7:20 PM37 °FLight rain. Passing clouds.6 mph100%29.80 "HgN/A
6:50 PM37 °FLight rain. Passing clouds.6 mph100%29.80 "HgN/A
6:20 PM37 °FLight rain. Passing clouds.8 mph100%29.80 "HgN/A
Weather by CustomWeather, © 2014

See weather overviewHow to use our weather pages